Weather History for Springfield, MO

Change the Weather History Date:

Friday, March 29, 2013

  Actual Average Record
Temperature  
Mean Temperature 59 °F 50 °F  
Max Temperature 67 °F 62 °F 85 °F (1963)
Min Temperature 50 °F 39 °F 18 °F (1964)
Degree Days  
Heating Degree Days 6 15  
Month to date heating degree days 696 551  
Since 1 July heating degree days 3994 4144  
Cooling Degree Days 0 0  
Month to date cooling degree days 0 0  
Year to date cooling degree days 0 0  
Growing Degree Days 8 (Base 50)    
Moisture  
Dew Point 49 °F    
Average Humidity 78    
Maximum Humidity 100    
Minimum Humidity 56    
Precipitation  
Precipitation 0.31 in 0.13 in 2.07 in (1988)
Month to date precipitation 4.29 3.35  
Year to date precipitation 9.63 8.34  
Snow  
Snow 0.00 in - - ()
Month to date snowfall 4.3  
Since 1 July snowfall 11.3  
Snow Depth 0.00 in    
Sea Level Pressure  
Sea Level Pressure 30.15 in    
Wind  
Wind Speed 8 mph (East)    
Max Wind Speed 17 mph    
Max Gust Speed 23 mph    
Visibility 9 miles    
Events Rain    
T = Trace of Precipitation, MM = Missing Value Source: NWS Daily Summary

Daily Weather History Graph

Daily Weather History Graph

Search for Another Location

Airport:

Trip Planner

Search our weather history database for the weather conditions in past years. The results will help you decide how hot, cold, wet, or windy it might be!

Date:

Astronomy

Mar. 29, 2013 Rise Set
Actual Time 7:03 AM CDT 7:33 PM CDT
Civil Twilight 6:37 AM CDT 7:59 PM CDT
Nautical Twilight 6:06 AM CDT 8:30 PM CDT
Astronomical Twilight 5:34 AM CDT 9:02 PM CDT
Moon 10:29 PM CDT (3/29) 8:16 AM CDT (3/29)
Length of Visible Light 13h 22m
Length of Day
12h 30m
Waning Gibbous, 93% of the Moon is Illuminated
Mar 29
Waning Gibbous
Apr 2
Last Quarter
Apr 10
New
Apr 18
First Quarter
Apr 25
Full

Hourly Weather History & Observations

Time (CDT) Temp. Dew Point Humidity Pressure Visibility Wind Dir Wind Speed Gust Speed Precip Events Conditions
12:52 AM 52.0 °F 41.0 °F 66% 30.13 in 10.0 mi SE 11.5 mph - N/A   Mostly Cloudy
1:52 AM 54.0 °F 41.0 °F 62% 30.13 in 10.0 mi North - - N/A   Overcast
2:52 AM 53.1 °F 42.1 °F 66% 30.14 in 10.0 mi NNE 8.1 mph - N/A   Overcast
3:52 AM 52.0 °F 48.9 °F 89% 30.17 in 9.0 mi North 11.5 mph - 0.01 in Rain Light Rain
4:16 AM 52.0 °F 50.0 °F 93% 30.17 in 4.0 mi North 6.9 mph - 0.08 in Rain Heavy Rain
4:52 AM 52.0 °F 51.1 °F 97% 30.15 in 7.0 mi NE 4.6 mph - 0.13 in Rain Rain
5:37 AM 51.1 °F 50.0 °F 96% 30.14 in 10.0 mi North - - 0.05 in   Overcast
5:52 AM 51.1 °F 50.0 °F 96% 30.14 in 9.0 mi NE 4.6 mph - 0.05 in   Overcast
6:52 AM 51.1 °F 50.0 °F 96% 30.16 in 6.0 mi Calm Calm - 0.07 in Rain Light Rain
7:43 AM 50.0 °F 50.0 °F 100% 30.18 in 2.5 mi South 4.6 mph - 0.04 in Rain Light Rain
7:52 AM 51.1 °F 50.0 °F 96% 30.18 in 2.0 mi South 5.8 mph - 0.05 in Rain Light Rain
8:05 AM 51.1 °F 50.0 °F 96% 30.17 in 4.0 mi SSE 6.9 mph - 0.00 in Rain Light Rain
8:52 AM 51.1 °F 50.0 °F 96% 30.17 in 5.0 mi SSE 6.9 mph - 0.00 in   Overcast
9:52 AM 53.1 °F 51.1 °F 93% 30.19 in 8.0 mi South 5.8 mph - N/A   Overcast
10:09 AM 53.1 °F 52.0 °F 96% 30.19 in 9.0 mi South 5.8 mph - N/A   Overcast
10:16 AM 54.0 °F 52.0 °F 93% 30.19 in 9.0 mi South 8.1 mph - N/A   Overcast
10:52 AM 55.9 °F 53.1 °F 90% 30.18 in 10.0 mi SSE 8.1 mph - N/A   Mostly Cloudy
11:28 AM 57.9 °F 53.1 °F 84% 30.19 in 10.0 mi Variable 4.6 mph - N/A   Overcast
11:52 AM 57.9 °F 53.1 °F 84% 30.19 in 10.0 mi SW 4.6 mph - N/A   Overcast
12:52 PM 61.0 °F 51.1 °F 70% 30.17 in 10.0 mi NE 5.8 mph - N/A   Overcast
1:52 PM 62.1 °F 51.1 °F 67% 30.16 in 10.0 mi NE 6.9 mph - N/A   Overcast
2:31 PM 63.0 °F 51.1 °F 65% 30.15 in 10.0 mi NE 8.1 mph - N/A   Overcast
2:52 PM 64.0 °F 50.0 °F 60% 30.14 in 10.0 mi ENE 5.8 mph - N/A   Mostly Cloudy
3:52 PM 63.0 °F 48.9 °F 60% 30.12 in 10.0 mi ENE 3.5 mph - N/A   Scattered Clouds
4:52 PM 66.0 °F 50.0 °F 56% 30.11 in 10.0 mi East 11.5 mph - N/A   Clear
5:52 PM 64.9 °F 48.9 °F 56% 30.12 in 10.0 mi ENE 10.4 mph - N/A   Mostly Cloudy
6:52 PM 63.0 °F 48.0 °F 58% 30.13 in 10.0 mi East 10.4 mph - N/A   Overcast
7:52 PM 60.1 °F 48.0 °F 64% 30.12 in 10.0 mi East 6.9 mph - N/A   Mostly Cloudy
8:52 PM 57.0 °F 46.9 °F 69% 30.13 in 10.0 mi East 9.2 mph - N/A   Clear
9:52 PM 55.0 °F 46.9 °F 74% 30.14 in 10.0 mi ESE 8.1 mph - N/A   Clear
10:52 PM 54.0 °F 46.9 °F 77% 30.13 in 10.0 mi ESE 10.4 mph - N/A   Partly Cloudy
11:52 PM 54.0 °F 46.0 °F 75% 30.12 in 10.0 mi SE 11.5 mph - N/A   Clear